EW5500 Weather Reports


Display with metric or nautical units.
time (UTC)temp
F
wind
direction
speed
MPH
gust
MPH
rain 1hr
in
rain 24hr
in
rain mn
in
humidity
%
barometer
mb
20260502223017 66 228 2.0 9.0 0.00 0.00 0.00 35 1012.7
20260502221518 65 278 1.0 9.0 0.00 0.00 0.00 36 1012.9
20260502220013 64 277 2.0 6.0 0.00 0.00 0.00 37 1013.3
20260502214523 64 250 2.0 4.0 0.00 0.00 0.00 37 1013.5
20260502213011 61 244 1.0 5.0 0.00 0.00 0.00 40 1013.8
20260502211516 61 265 4.0 7.0 0.00 0.00 0.00 43 1014.0
20260502210021 61 255 4.0 9.0 0.00 0.00 0.00 43 1014.2
20260502204511 62 298 2.0 9.0 0.00 0.00 0.00 39 1014.3
20260502203012 62 321 2.0 5.0 0.00 0.00 0.00 37 1014.5
20260502201508 62 304 2.0 6.0 0.00 0.00 0.00 37 1014.7
20260502200005 61 311 3.0 8.0 0.00 0.00 0.00 37 1014.9
20260502194503 62 283 3.0 7.0 0.00 0.00 0.00 38 1015.0
20260502193003 62 270 3.0 8.0 0.00 0.00 0.00 39 1015.1
20260502191506 61 293 4.0 10.0 0.00 0.00 0.00 38 1015.2
20260502184503 62 338 2.0 7.0 0.00 0.00 0.00 40 1015.2
20260502183100 64 290 4.0 9.0 0.00 0.00 0.00 39 1015.3
20260502181558 62 277 3.0 7.0 0.00 0.00 0.00 43 1015.4
20260502180107 61 335 2.0 8.0 0.00 0.00 0.00 46 1015.5
20260502163048 59 261 1.0 6.0 0.00 0.00 0.00 53 1015.6
20260502161547 58 269 2.0 8.0 0.00 0.00 0.00 54 1015.6
20260502151540 57 269 2.0 6.0 0.00 0.00 0.00 55 1015.4
20260502123021 48 298 2.0 6.0 0.00 0.00 0.00 78 1015.1
20260502121534 46 285 1.0 4.0 0.00 0.00 0.00 72 1014.9
20260502114515 44 259 2.0 5.0 0.00 0.00 0.00 71 1014.8
20260502113010 45 287 0.0 2.0 0.00 0.00 0.00 67 1014.6
20260502111507 46 359 0.0 2.0 0.00 0.00 0.00 65 1014.5
20260502110005 47 275 0.0 2.0 0.00 0.00 0.00 65 1014.5
20260502104502 47 300 0.0 2.0 0.00 0.00 0.00 65 1014.5
20260502103110 47 342 0.0 1.0 0.00 0.00 0.00 64 1014.2
20260502101611 47 342 0.0 1.0 0.00 0.00 0.00 64 1014.1
20260502070036 50 351 2.0 4.0 0.00 0.00 0.00 54 1012.9
20260502064535 51 88 1.0 4.0 0.00 0.00 0.00 53 1012.5
20260502063031 52 75 1.0 5.0 0.00 0.00 0.00 51 1012.3
20260502061525 53 70 3.0 7.0 0.00 0.00 0.00 49 1012.2
20260502060023 53 106 3.0 6.0 0.00 0.00 0.00 47 1012.0
20260502054531 54 91 3.0 6.0 0.00 0.00 0.00 47 1011.8
20260502053021 54 115 1.0 6.0 0.00 0.00 0.00 45 1011.5
20260502051520 52 20 0.0 2.0 0.00 0.00 0.00 48 1011.1
20260502050022 52 347 1.0 2.0 0.00 0.00 0.00 48 1010.6
20260502044518 52 241 0.0 0.0 0.00 0.00 0.00 47 1010.3
20260502043018 53 240 0.0 0.0 0.00 0.00 0.00 46 1010.2
20260502041518 53 240 0.0 1.0 0.00 0.00 0.00 46 1010.1
20260502040017 54 222 0.0 1.0 0.00 0.00 0.00 43 1010.0
20260502034517 55 247 0.0 1.0 0.00 0.00 0.00 42 1009.9
20260502033016 57 247 0.0 2.0 0.00 0.00 0.00 41 1009.9
20260502031518 61 56 0.0 1.0 0.00 0.00 0.00 33 1009.8
20260502030016 63 56 0.0 2.0 0.00 0.00 0.00 31 1009.6
20260502024515 65 56 0.0 2.0 0.00 0.00 0.00 29 1009.6
20260502023015 66 56 0.0 1.0 0.00 0.00 0.00 30 1009.5
20260502021516 68 56 0.0 2.0 0.00 0.00 0.00 27 1009.4
20260502020014 70 349 0.0 2.0 0.00 0.00 0.00 24 1009.4
20260502014524 72 349 0.0 4.0 0.00 0.00 0.00 23 1009.4
20260502013012 72 354 2.0 6.0 0.00 0.00 0.00 20 1009.6
20260502011511 72 357 3.0 6.0 0.00 0.00 0.00 20 1009.7
20260502010012 73 338 3.0 8.0 0.00 0.00 0.00 20 1009.8
20260502004515 73 328 1.0 6.0 0.00 0.00 0.00 19 1009.8
20260502003007 73 348 2.0 8.0 0.00 0.00 0.00 18 1009.9
20260502001505 73 1 2.0 7.0 0.00 0.00 0.00 21 1010.0
20260502000004 72 342 5.0 12.0 0.00 0.00 0.00 20 1010.1
20260501234504 73 218 0.0 7.0 0.00 0.00 0.00 19 1010.1
20260501233002 74 335 3.0 10.0 0.00 0.00 0.00 18 1010.2
20260501231501 74 349 5.0 11.0 0.00 0.00 0.00 18 1010.2
20260501230002 74 305 3.0 8.0 0.00 0.00 0.00 18 1010.2
20260501224559 75 323 6.0 16.0 0.00 0.00 0.00 17 1010.3